Weather Roundup
Issued by NWS Chicago, IL

Home | Current Version | Previous Version | Graphics & Text | Print | Product List | Glossary On
Versions: 1 2 3 4 5 6 7 8 9 10 11 12 13 14 15 16 17 18 19 20 21 22 23 24 25 26 27 28 29 30 31 32 33 34 35 36 37 38 39 40 41 42 43 44 45 46 47 48 49 50
000
NZUS59 KLOT 300608
HRRLOT

CHICAGO AREA WEATHER ROUNDUP
NATIONAL WEATHER SERVICE CHICAGO/ROMEOVILLE IL
100 AM CDT SAT MAY 30 2015

NOTE: "FAIR" INDICATES FEW OR NO CLOUDS BELOW 12,000 FEET WITH NO
SIGNIFICANT WEATHER AND/OR OBSTRUCTIONS TO VISIBILITY.

* THESE STATIONS ARE NOT UNDER NWS QUALITY CONTROL. THEY ALSO MAY NOT
  REPORT WEATHER SUCH AS PRECIPITATION OR FOG.

ILZ005-006-012>014-019>023-300700-
NORTHEAST ILLINOIS

CITY           SKY/WX    TMP DP  RH WIND       PRES   REMARKS
OHARE          MOCLDY    71  65  81 SW8       29.93F
6HR MIN TEMP:  71; 6HR MAX TEMP:  80;

MIDWAY         MOCLDY    73  65  75 SW9       29.94F
6HR MIN TEMP:  73; 6HR MAX TEMP:  83;

AURORA         MOCLDY    70  64  81 SW7       29.95S
6HR MIN TEMP:  70; 6HR MAX TEMP:  80;

LANSING*       MOCLDY    68  63  84 SW6       29.96S
JOLIET*        MOCLDY    72  66  82 SW6       29.96S
WAUKEGAN       MOCLDY    69  63  81 SW8       29.92S
6HR MIN TEMP:  68; 6HR MAX TEMP:  78;

DUPAGE AIRPORT MOCLDY    70  65  84 SW8       29.94F
6HR MIN TEMP:  70; 6HR MAX TEMP:  79;

WHEELING       MOCLDY    71  66  84 SW6       29.94S
6HR MIN TEMP:  69; 6HR MAX TEMP:  81; 6HR PCP:  0.11;

KANKAKEE*      MOCLDY    69  66  90 SW7       29.97F
MORRIS*        MOCLDY    69  65  88 SW9       29.94F
LEWIS AIRPORT* MOCLDY    70  64  80 SW12      29.96S
NORTHERLY IS     N/A     73  62  68 SW5         N/A
$$

WIZ051-052-058>065-066-070>072-300700-
SOUTHEAST WISCONSIN

CITY           SKY/WX    TMP DP  RH WIND       PRES   REMARKS
MILWAUKEE      CLOUDY    71  64  78 W7        29.90S
6HR MIN TEMP:  71; 6HR MAX TEMP:  74;

KENOSHA*       CLOUDY    70  64  81 SW8       29.92S
RACINE*        CLOUDY    70  63  78 SW7       29.92S
BURLINGTON     CLOUDY    67  63  85 SW7       29.92S
WAUKESHA       CLOUDY    64  61  88 NW5       29.93S
WEST BEND      DRIZZLE   64  61  88 CALM      29.91F
$$

INZ001>003-010>013-019-020-300700-
NORTHWEST INDIANA

CITY           SKY/WX    TMP DP  RH WIND       PRES   REMARKS
GARY*          MOCLDY    72  66  82 SW3       29.95F
6HR MIN TEMP:  72; 6HR MAX TEMP:  83; 6HR PCP:  0.16;

MICHIGAN CITY* NOT AVBL
RENSSELAER*    NOT AVBL
VALPARAISO     CLOUDY    69  65  86 SW8       29.98S
$$

LMZ740>746-300700-
SOUTHERN LAKE MICHIGAN

STATION/POSITION TIME  SKY/WX   TEMP WIND        PRES    VSBY
                                AIR  DIR/SP/G
                 (UTC)          (F)  (DEG/KT/KT) (MB)    (MI)
HARRISON CRIB    0500            73  220/ 19/ 24   N/A
BURNHAM HARBOR   0600            73  220/  4/  8   N/A
CALUMET HARBOR   0500            71  210/  6/  9   N/A
BURNS HARBOR     0500            70  200/ 10/ 13 1014.9R
MICHIGAN CITY    0500            71  170/ 10/ 12   N/A
$$

ABBREVIATIONS USED IN REMARKS
   TC - TEMPERATURE IN CELSIUS
  WCI - WIND CHILL INDEX
   HX - HEAT INDEX
  VSB - VISIBILITY
$$



USA.gov is the U.S. government's official web portal to all federal, state and local government web resources and services.